CUTE-1 (CO-55) (27844 NORAD) Tracking and Keplerian Element Data

This shows tracking and keplerian element data for the satellite.

Feedback or suggestion? Click here.




ElementValue
Catalog27844
NameCUTE-1 (CO-55)
Epoch Orbit10451
Epoch Day286.76386677
Epoch Year2024
RAAN292.1895
Inclination98.6804
Eccentricity0.0010133
Argument of Perigee156.7545
Mean Anonmoly203.4094
Mean Motion14.23544711
Decay Rate1.714E-05
L11 27844U 03031E 24286.76386677 .00001714 00000+0 77198-3 0 9991
L22 27844 98.6804 292.1895 0010133 156.7545 203.4094 14.23544711104514



Live tracking and technical data element details for CUTE-1 (CO-55) (NORAD 27844). CUTE-1 (CO-55) can be tracked NOW for your location showing map with azimuth and elevation plus other details from your city location.







IsCatalogInMostPopularTable: catalog: 27844, numindb: 573
Update: records affected: 1



GetName: 27844 CUTE-1 (CO-55)

Hit Count: updated at: Fri, 24 Jan 2025 22:40:54 GMT